State University, AR

1:06 PM CST on February 06, 2016 (GMT -0600)
Jonesboro Municipal

Weather History for KJBR - November, 2011

Change the Weather History Date:

Tuesday, November 29, 2011

  Actual Average Record
Temperature  
Mean Temperature 39 °F 44 °F  
Max Temperature 46 °F 53 °F 78 °F (1927)
Min Temperature 31 °F 35 °F 13 °F (1976)
Degree Days  
Heating Degree Days 26 21  
Month to date heating degree days 352 442  
Since 1 July heating degree days 527 629  
Cooling Degree Days 0 0  
Month to date cooling degree days 9 1  
Year to date cooling degree days 2223 1825  
Moisture  
Dew Point 30 °F    
Average Humidity 71    
Maximum Humidity 89    
Minimum Humidity 53    
Precipitation  
Precipitation 0.36 in 0.20 in 1.72 in (2010)
Month to date precipitation 10.50 4.71  
Year to date precipitation 50.32 43.14  
Snow  
Snow 1.30 in 0.00 in 1.50 in (1952)
Month to date snowfall 2.5 0.0  
Since 1 July snowfall 2.5 0.0  
Since 1 September snowfall 2.5 0.0  
Snow Depth -    
Sea Level Pressure  
Sea Level Pressure 29.93 in    
Wind  
Wind Speed 7 mph (NW)    
Max Wind Speed 20 mph    
Max Gust Speed 26 mph    
Visibility 6 miles    
Events Snow    
T = Trace of Precipitation, MM = Missing Value Source: NWS Daily Summary

Daily Weather History Graph

Daily Weather History Graph

Search for Another Location

Airport or City:

Trip Planner

Search our weather history database for the weather conditions in past years. The results will help you decide how hot, cold, wet, or windy it might be!

Date:

Astronomy

Nov. 29, 2011 Rise Set
Actual Time 6:52 AM CST 4:49 PM CST
Civil Twilight 6:24 AM CST 5:17 PM CST
Nautical Twilight 5:52 AM CST 5:48 PM CST
Astronomical Twilight 5:21 AM CST 6:19 PM CST
Moon 10:42 AM CST (11/29) 9:38 PM CST (11/29)
Length of Visible Light 10h 53m
Length of Day
9h 57m
Waxing Crescent, 24% of the Moon is Illuminated
Nov 29
Waxing Crescent
Dec 2
First Quarter
Dec 10
Full
Dec 17
Last Quarter
Dec 24
New

Hourly Weather History & Observations

Time (CST) Temp. Windchill Dew Point Humidity Pressure Visibility Wind Dir Wind Speed Gust Speed Precip Events Conditions
12:13 AM 33.8 °F 24.3 °F 30.2 °F 87% 29.80 in 3.0 mi WNW 13.8 mph - 0.01 in Snow Light Snow
12:43 AM 33.8 °F 24.8 °F 30.2 °F 87% 29.79 in 2.5 mi WNW 12.7 mph - 0.02 in Snow Light Snow
12:53 AM 33.1 °F 24.4 °F 30.0 °F 89% 29.80 in 2.0 mi WNW 11.5 mph - 0.03 in Snow Light Snow
1:02 AM 33.8 °F 24.3 °F 30.2 °F 87% 29.80 in 1.2 mi WNW 13.8 mph - 0.00 in Snow Light Snow
1:44 AM 33.8 °F 25.8 °F 30.2 °F 87% 29.80 in 3.0 mi WNW 10.4 mph - 0.02 in Snow Light Snow
1:53 AM 33.1 °F 23.9 °F 30.0 °F 89% 29.80 in 2.0 mi WNW 12.7 mph 20.7 mph 0.03 in Snow Light Snow
2:03 AM 33.8 °F 25.8 °F 30.2 °F 87% 29.78 in 1.8 mi WNW 10.4 mph - 0.00 in Snow Light Snow
2:24 AM 33.8 °F 25.3 °F 30.2 °F 87% 29.80 in 3.0 mi WNW 11.5 mph - 0.01 in Snow Light Snow
2:53 AM 33.1 °F 24.4 °F 30.0 °F 89% 29.81 in 1.8 mi WNW 11.5 mph - 0.03 in Snow Light Snow
3:23 AM 33.8 °F 25.3 °F 30.2 °F 87% 29.80 in 2.0 mi WNW 11.5 mph - 0.01 in Snow Light Snow
3:38 AM 33.8 °F 25.8 °F 30.2 °F 87% 29.80 in 1.2 mi WNW 10.4 mph - 0.02 in Snow Light Snow
3:53 AM 33.1 °F 24.9 °F 30.0 °F 89% 29.81 in 2.0 mi WNW 10.4 mph - 0.03 in Snow Light Snow
4:00 AM 33.8 °F 27.0 °F 30.2 °F 87% 29.81 in 3.0 mi WNW 8.1 mph - 0.00 in Snow Light Snow
4:11 AM 33.8 °F 25.3 °F 30.2 °F 87% 29.81 in 2.5 mi WNW 11.5 mph - 0.01 in Snow Light Snow
4:21 AM 33.8 °F 24.8 °F 30.2 °F 87% 29.82 in 3.0 mi NW 12.7 mph 20.7 mph 0.01 in Snow Light Snow
4:27 AM 33.8 °F 25.8 °F 30.2 °F 87% 29.82 in 4.0 mi NW 10.4 mph 20.7 mph 0.02 in Snow Light Snow
4:49 AM 33.8 °F 26.4 °F 30.2 °F 87% 29.83 in 4.0 mi WNW 9.2 mph - 0.03 in Snow Light Snow
4:53 AM 34.0 °F 26.0 °F 30.0 °F 85% 29.83 in 4.0 mi WNW 10.4 mph - 0.03 in Snow Light Snow
5:53 AM 35.1 °F 26.9 °F 30.9 °F 85% 29.85 in 10.0 mi NW 11.5 mph - 0.05 in   Overcast
6:53 AM 35.1 °F 26.4 °F 28.9 °F 78% 29.87 in 10.0 mi NW 12.7 mph - 0.04 in   Overcast
7:53 AM 36.0 °F 28.5 °F 28.9 °F 76% 29.90 in 10.0 mi NW 10.4 mph - 0.06 in   Overcast
8:53 AM 36.0 °F 27.5 °F 28.0 °F 73% 29.94 in 10.0 mi NW 12.7 mph 19.6 mph 0.05 in   Overcast
9:53 AM 37.0 °F 28.9 °F 28.0 °F 70% 29.97 in 10.0 mi NW 12.7 mph 20.7 mph 0.01 in   Mostly Cloudy
10:53 AM 37.9 °F 28.9 °F 28.9 °F 70% 29.98 in 10.0 mi NNW 16.1 mph 21.9 mph N/A   Mostly Cloudy
11:53 AM 39.9 °F 32.9 °F 28.9 °F 65% 29.99 in 10.0 mi NNW 11.5 mph 17.3 mph N/A   Overcast
12:53 PM 42.1 °F 37.7 °F 30.9 °F 65% 29.99 in 10.0 mi Variable 6.9 mph 17.3 mph N/A   Scattered Clouds
1:21 PM 42.8 °F 38.6 °F 30.2 °F 61% 30.00 in 10.0 mi Variable 6.9 mph 17.3 mph N/A   Mostly Cloudy
1:53 PM 43.0 °F 37.7 °F 30.9 °F 62% 30.01 in 10.0 mi North 9.2 mph - N/A   Overcast
2:53 PM 45.0 °F 39.7 °F 32.0 °F 60% 30.03 in 10.0 mi NNE 10.4 mph - N/A   Scattered Clouds
3:53 PM 46.0 °F 44.8 °F 30.9 °F 56% 30.06 in 10.0 mi NNE 3.5 mph - N/A   Clear
4:53 PM 42.1 °F - 30.9 °F 65% 30.08 in 10.0 mi Calm Calm - N/A   Clear
5:53 PM 37.0 °F - 30.9 °F 79% 30.09 in 10.0 mi Calm Calm - N/A   Clear
6:53 PM 35.1 °F - 30.0 °F 82% 30.12 in 10.0 mi Calm Calm - N/A   Clear
7:53 PM 35.1 °F - 30.0 °F 82% 30.13 in 10.0 mi Calm Calm - N/A   Clear
8:53 PM 37.0 °F - 30.9 °F 79% 30.15 in 10.0 mi Calm Calm - N/A   Clear
9:53 PM 32.0 °F - 28.0 °F 85% 30.17 in 9.0 mi Calm Calm - N/A   Clear
10:53 PM 32.0 °F - 28.9 °F 88% 30.16 in 9.0 mi Calm Calm - N/A   Clear
11:53 PM 32.0 °F 27.5 °F 28.0 °F 85% 30.16 in 8.0 mi NNW 4.6 mph - N/A   Clear